MOLNIYA 1-32

Last updated on Jan. 26, 2021, 8:12 a.m. UTC

1 08601U 76006A   21025.09456777  .00001464  00000-0  74915-3 0  9993
2 08601  62.9876  14.4940 7419995 281.1474  10.6491  1.99980490 42509
UTC
Height (km)
Latitude
Longitude
Inclination
Orbital Period
UTC large
Height (km)
Speed (km/s)
/
Latitude / Longitude
Inclination (degrees)
Orbital Period (minutes)
Azimuth
Elevation
Range (km)
Doppler Factor
iOS Compass Heading
iOS Angle

Next 30 passes for location: Hong Kong

Rise time Rise Azimuth (degrees) Set time Set Azimuth (degrees) Duration Max altitude (degrees)

No matching passes for this satellites